STARLINK-2040 (47656 NORAD) Tracking and Keplerian Element Data

This shows tracking and keplerian element data for the satellite.

Feedback or suggestion? Click here.




ElementValue
Catalog47656
NameSTARLINK-2040
Epoch Orbit177
Epoch Day101.91668981
Epoch Year2021
RAAN188.9495
Inclination53.0474
Eccentricity0.000191
Argument of Perigee30.5863
Mean Anonmoly31.8365
Mean Motion15.73263828
Decay Rate-0.00019197
L11 47656U 21012AN 21101.91668981 -.00019197 00000-0 -13226-3 0 9993
L22 47656 53.0474 188.9495 0001910 30.5863 31.8365 15.73263828 1779

Live tracking and technical data element details for STARLINK-2040 (NORAD 47656). STARLINK-2040 can be tracked NOW for your location showing map with azimuth and elevation plus other details from your city location.

Track the satellite on the map from your city or location and see movement details for azimuth, elevation, latitude, longitude, range, height, and movement on the map or in text.







IsCatalogInMostPopularTable: catalog: 47656, numindb: 15
Update: records affected: 1



GetName: 47656 STARLINK-2040

Hit Count: updated at: Tue, 13 Apr 2021 05:09:14 GMT